Weather History for Bolton Field, OH

Change the Weather History Date:

Saturday, January 5, 2013

  Actual Average Record
Temperature  
Mean Temperature 24 °F -  
Max Temperature 36 °F 36 °F 62 °F (1998)
Min Temperature 13 °F 24 °F -7 °F (1999)
Degree Days  
Heating Degree Days 41    
Moisture  
Dew Point 21 °F    
Average Humidity 83    
Maximum Humidity 95    
Minimum Humidity 65    
Precipitation  
Precipitation 0.00 in - - ()
Sea Level Pressure  
Sea Level Pressure 30.27 in    
Wind  
Wind Speed 6 mph (SSW)    
Max Wind Speed 13 mph    
Max Gust Speed -    
Visibility 9 miles    
Events      
Averages and records for this station are not official NWS values.
T = Trace of Precipitation, MM = Missing Value Source: NWS Daily Summary

Daily Weather History Graph

Daily Weather History Graph

Search for Another Location

Airport:

Trip Planner

Search our weather history database for the weather conditions in past years. The results will help you decide how hot, cold, wet, or windy it might be!

Date:

Astronomy

Jan. 05, 2013 Rise Set
Actual Time 7:54 AM EST 5:22 PM EST
Civil Twilight 7:24 AM EST 5:52 PM EST
Nautical Twilight 6:50 AM EST 6:26 PM EST
Astronomical Twilight 6:17 AM EST 6:58 PM EST
Moon 12:59 AM EST (1/5) 12:11 PM EST (1/5)
Length of Visible Light 10h 28m
Length of Day
9h 27m
Last Quarter, 44% of the Moon is Illuminated
Jan 5
Last Quarter
Jan 11
New
Jan 18
First Quarter
Jan 26
Full
Feb 3
Last Quarter

Hourly Weather History & Observations

Time (EST) Temp. Windchill Dew Point Humidity Pressure Visibility Wind Dir Wind Speed Gust Speed Precip Events Conditions
12:15 AM 19.2 °F 11.3 °F 14.0 °F 80% 30.31 in 10.0 mi SW 5.8 mph - N/A   Clear
12:35 AM 20.1 °F 10.3 °F 14.5 °F 79% 30.31 in 10.0 mi SW 8.1 mph - N/A   Clear
12:55 AM 19.2 °F 10.2 °F 14.7 °F 83% 30.31 in 10.0 mi SW 6.9 mph - N/A   Clear
1:15 AM 21.2 °F 10.1 °F 15.8 °F 80% 30.31 in 10.0 mi SW 10.4 mph - N/A   Clear
1:35 AM 23.0 °F 12.4 °F 17.6 °F 80% 30.31 in 10.0 mi SW 10.4 mph - N/A   Clear
1:55 AM 22.8 °F 12.9 °F 17.4 °F 80% 30.31 in 10.0 mi SW 9.2 mph - N/A   Clear
2:15 AM 22.5 °F 12.4 °F 17.8 °F 82% 30.31 in 10.0 mi SW 9.2 mph - N/A   Clear
2:35 AM 22.8 °F 12.2 °F 18.1 °F 82% 30.31 in 10.0 mi SW 10.4 mph - N/A   Clear
2:55 AM 21.6 °F 13.0 °F 17.4 °F 84% 30.33 in 10.0 mi SW 6.9 mph - N/A   Clear
3:15 AM 21.2 °F 14.9 °F 17.4 °F 85% 30.33 in 10.0 mi SW 4.6 mph - N/A   Clear
3:35 AM 20.5 °F - 17.2 °F 87% 30.32 in 10.0 mi Calm Calm - N/A   Clear
3:55 AM 19.4 °F - 16.9 °F 90% 30.31 in 10.0 mi Calm Calm - N/A   Clear
4:15 AM 16.3 °F 9.2 °F 15.1 °F 95% 30.32 in 7.0 mi SSW 4.6 mph - N/A   Clear
4:35 AM 16.5 °F - 14.9 °F 93% 30.33 in 5.0 mi North - - N/A   Clear
4:55 AM 16.5 °F 9.4 °F 15.1 °F 94% 30.33 in 5.0 mi SW 4.6 mph - N/A   Clear
5:15 AM 15.3 °F 7.9 °F 13.6 °F 93% 30.33 in 5.0 mi SSW 4.6 mph - N/A   Clear
5:35 AM 17.2 °F - 15.6 °F 93% 30.33 in 5.0 mi Calm Calm - N/A   Clear
5:55 AM 17.2 °F 10.2 °F 16.0 °F 95% 30.33 in 4.0 mi SSW 4.6 mph - N/A   Clear
6:15 AM 18.1 °F 11.3 °F 16.7 °F 94% 30.34 in 5.0 mi SSW 4.6 mph - N/A   Clear
6:35 AM 16.7 °F - 15.3 °F 94% 30.34 in 4.0 mi Calm Calm - N/A   Clear
7:15 AM 13.8 °F 6.2 °F 11.7 °F 91% 30.36 in 3.0 mi South 4.6 mph - N/A   Clear
7:50 AM 15.8 °F 7.2 °F 12.2 °F 86% 30.36 in 5.0 mi South 5.8 mph - N/A   Clear
8:50 AM 17.6 °F - 15.8 °F 93% 30.35 in 5.0 mi Calm Calm - N/A   Clear
9:50 AM 19.4 °F 12.8 °F 17.6 °F 93% 30.34 in 7.0 mi South 4.6 mph - N/A   Clear
11:50 AM 30.2 °F 23.4 °F 24.8 °F 80% 30.31 in 10.0 mi SSW 6.9 mph - N/A   Clear
12:50 PM 33.8 °F 27.7 °F 26.6 °F 75% 30.27 in 10.0 mi South 6.9 mph - N/A   Clear
2:55 PM 35.6 °F 27.1 °F 24.8 °F 65% 30.22 in 10.0 mi South 12.7 mph - N/A   Clear
3:47 PM 35.6 °F 29.9 °F 26.6 °F 70% 30.20 in 10.0 mi South 6.9 mph - N/A   Mostly Cloudy
4:50 PM 35.6 °F - 26.6 °F 70% 30.19 in 10.0 mi Calm Calm - N/A   Overcast
5:47 PM 35.6 °F - 26.6 °F 70% 30.20 in 10.0 mi Calm Calm - N/A   Overcast
6:47 PM 35.6 °F - 26.6 °F 70% 30.20 in 10.0 mi Calm Calm - N/A   Overcast
8:15 PM 34.7 °F 28.8 °F 28.4 °F 78% 30.19 in 10.0 mi SW 6.9 mph - N/A   Overcast
8:35 PM 34.3 °F 27.7 °F 28.8 °F 80% 30.17 in 10.0 mi SW 8.1 mph - N/A   Overcast
8:55 PM 34.0 °F 27.2 °F 28.9 °F 82% 30.18 in 10.0 mi SW 8.1 mph - N/A   Overcast
9:15 PM 34.3 °F 27.0 °F 28.9 °F 81% 30.17 in 10.0 mi SSW 9.2 mph - N/A   Overcast
9:35 PM 34.3 °F 27.7 °F 28.9 °F 81% 30.17 in 10.0 mi SSW 8.1 mph - N/A   Overcast
9:55 PM 34.5 °F 28.6 °F 28.9 °F 80% 30.17 in 10.0 mi SSW 6.9 mph - N/A   Overcast
10:15 PM 33.8 °F 28.6 °F 28.9 °F 82% 30.16 in 10.0 mi SSW 5.8 mph - N/A   Overcast
10:35 PM 33.8 °F 27.0 °F 28.9 °F 82% 30.16 in 10.0 mi SSW 8.1 mph - N/A   Overcast
10:55 PM 33.6 °F 26.8 °F 28.9 °F 83% 30.16 in 10.0 mi SSW 8.1 mph - N/A   Overcast
11:15 PM 33.8 °F 27.0 °F 28.8 °F 82% 30.16 in 10.0 mi SSW 8.1 mph - N/A   Overcast
11:35 PM 34.0 °F 28.0 °F 28.8 °F 81% 30.16 in 10.0 mi SW 6.9 mph - N/A   Overcast
11:55 PM 34.0 °F 28.0 °F 28.4 °F 80% 30.15 in 10.0 mi SW 6.9 mph - N/A   Overcast